Visibility
9.9 14.1 15.0 15.0 15.0 15.0 15.0 15.0 15.0 15.0 15.0 15.0 15.0 15.0 15.0 15.0 15.0 15.0 15.0 15.0 15.0 15.0 15.0 15.0 15.0 15.0 15.0 15.0 15.0 15.0 15.0 15.0 0.2 0.5 11.7 15.0 9.9 15.0 15.0 15.0 4.8 4.3 0.4 0.4
3.7 6.5 15.0 15.0 15.0 15.0 15.0 15.0 15.0 15.0 15.0 15.0 15.0 15.0 15.0 15.0 15.0 15.0 15.0 15.0 15.0 15.0 15.0 15.0 15.0 15.0 15.0 15.0 15.0 15.0 14.9 0.5 10.1 15.0 15.0 14.9 15.0 15.0 14.9 6.4 1.7 0.5 0.1 0.1
15.0 15.0 15.0 15.0 15.0 15.0 15.0 15.0 15.0 15.0 15.0 15.0 15.0 15.0 15.0 15.0 15.0 15.0 15.0 15.0 15.0 15.0 15.0 15.0 15.0 15.0 15.0 15.0 15.0 15.0 10.7 15.0 6.5 15.0 0.4 1.3 15.0 12.3 0.3 0.1 0.1 0.0 0.0 0.0
15.0 15.0 15.0 15.0 15.0 15.0 15.0 15.0 15.0 15.0 15.0 15.0 15.0 15.0 15.0 15.0 15.0 15.0 15.0 15.0 15.0 15.0 15.0 15.0 15.0 14.7 15.0 9.9 9.6 13.7 15.0 10.9 10.7 1.2 0.1 0.1 0.2 0.1 0.0 0.0 0.0 0.1 0.1 0.1
15.0 15.0 15.0 15.0 15.0 15.0 15.0 15.0 15.0 15.0 15.0 15.0 15.0 15.0 15.0 15.0 15.0 15.0 15.0 15.0 15.0 15.0 15.0 14.6 15.0 15.0 15.0 15.0 15.0 7.6 0.3 0.2 0.1 0.0 0.0 0.0 0.0 0.0 0.0 0.1 2.3 0.9 0.5 0.3
7.4 15.0 15.0 15.0 15.0 15.0 15.0 15.0 15.0 15.0 15.0 15.0 15.0 15.0 15.0 15.0 15.0 15.0 15.0 15.0 15.0 15.0 8.2 5.0 14.8 15.0 15.0 15.0 15.0 0.8 14.9 0.2 0.1 0.0 0.0 0.0 0.0 0.0 0.1 15.0 2.1 0.2 0.1 0.1
15.0 15.0 15.0 15.0 15.0 15.0 15.0 14.4 15.0 15.0 15.0 15.0 15.0 15.0 15.0 15.0 15.0 15.0 15.0 15.0 15.0 9.8 15.0 15.0 15.0 15.0 15.0 15.0 0.7 15.0 0.2 0.0 0.0 0.0 0.0 0.0 0.0 0.0 0.1 3.9 4.0 0.2 0.1 0.1
10.1 8.1 1.2 15.0 15.0 15.0 15.0 15.0 15.0 15.0 15.0 15.0 15.0 15.0 15.0 15.0 15.0 15.0 15.0 15.0 15.0 14.9 15.0 10.7 15.0 15.0 15.0 0.8 15.0 15.0 0.2 0.0 0.0 0.0 0.0 0.0 0.0 0.1 0.1 0.2 0.1 0.2 0.3 0.2
15.0 15.0 15.0 15.0 15.0 15.0 15.0 15.0 15.0 15.0 15.0 15.0 15.0 15.0 15.0 15.0 15.0 15.0 15.0 15.0 15.0 15.0 15.0 15.0 15.0 15.0 15.0 0.3 15.0 1.3 0.0 0.0 0.0 0.0 0.0 0.1 0.1 0.1 0.1 0.1 0.2 0.3 0.2 0.1
15.0 15.0 15.0 15.0 15.0 15.0 15.0 15.0 15.0 15.0 15.0 15.0 15.0 15.0 15.0 15.0 15.0 15.0 15.0 4.8 3.6 15.0 15.0 15.0 14.2 10.7 15.0 5.0 0.2 0.1 0.0 0.0 0.0 0.0 0.0 0.0 0.1 0.1 0.1 0.1 0.1 0.3 0.1 0.1
15.0 15.0 15.0 15.0 15.0 15.0 15.0 15.0 15.0 15.0 15.0 15.0 15.0 15.0 15.0 15.0 15.0 15.0 15.0 14.8 15.0 15.0 15.0 15.0 15.0 0.6 15.0 15.0 7.2 0.1 0.0 0.0 0.0 0.1 0.1 0.2 0.2 0.2 0.2 9.6 6.0 0.4 0.2 0.2
15.0 15.0 15.0 15.0 15.0 15.0 15.0 15.0 15.0 15.0 15.0 15.0 15.0 15.0 15.0 15.0 15.0 15.0 15.0 15.0 11.0 15.0 15.0 15.0 15.0 1.0 2.9 15.0 13.8 0.4 0.1 0.1 0.3 0.5 0.6 1.0 0.4 0.1 0.1 0.2 0.3 0.2 0.4 1.9
15.0 15.0 15.0 15.0 15.0 15.0 15.0 15.0 15.0 15.0 15.0 15.0 15.0 15.0 15.0 15.0 15.0 15.0 15.0 15.0 13.5 13.7 15.0 15.0 15.0 15.0 14.8 15.0 15.0 15.0 15.0 15.0 6.1 3.5 1.7 3.1 0.5 0.5 0.2 0.1 0.1 0.1 0.2 0.2
15.0 15.0 15.0 15.0 15.0 15.0 15.0 15.0 15.0 15.0 15.0 15.0 15.0 15.0 15.0 15.0 15.0 15.0 15.0 15.0 15.0 15.0 10.9 15.0 15.0 12.1 15.0 15.0 15.0 15.0 15.0 15.0 9.5 4.0 0.7 5.1 9.5 0.4 0.4 3.7 0.3 0.1 0.4 0.2
15.0 15.0 15.0 15.0 15.0 15.0 15.0 15.0 15.0 15.0 15.0 15.0 15.0 15.0 15.0 15.0 6.6 12.5 15.0 0.4 7.0 15.0 15.0 6.4 0.6 0.9 15.0 15.0 15.0 15.0 15.0 13.6 8.2 4.1 1.3 11.2 12.8 0.3 0.2 0.2 0.1 0.5 0.1 0.1
15.0 15.0 15.0 15.0 15.0 15.0 15.0 15.0 15.0 15.0 15.0 15.0 15.0 15.0 15.0 15.0 15.0 15.0 15.0 14.6 9.4 2.6 14.8 13.3 0.3 14.2 15.0 15.0 15.0 15.0 9.8 9.9 5.2 6.8 0.8 0.4 0.4 0.4 0.1 0.2 0.2 0.6 3.0 9.6
15.0 15.0 15.0 14.8 14.5 0.4 0.8 15.0 15.0 15.0 15.0 15.0 15.0 15.0 15.0 15.0 15.0 15.0 0.3 15.0 15.0 11.8 0.1 13.1 0.1 13.0 15.0 15.0 15.0 15.0 13.0 7.0 4.2 7.3 4.8 0.7 1.4 3.0 0.4 0.2 0.6 1.2 3.8 3.1
15.0 15.0 15.0 15.0 15.0 15.0 15.0 15.0 15.0 14.6 8.0 15.0 15.0 15.0 15.0 15.0 15.0 15.0 15.0 15.0 11.5 0.1 0.1 0.6 15.0 7.0 11.0 15.0 15.0 15.0 15.0 12.8 2.6 13.1 7.8 0.2 0.4 0.2 0.1 0.3 0.8 4.3 2.6 0.5
15.0 15.0 15.0 15.0 15.0 6.2 6.7 5.9 3.8 15.0 5.0 0.4 0.3 1.9 12.2 15.0 15.0 15.0 15.0 9.6 0.7 3.8 0.0 0.1 0.1 0.2 0.1 0.2 15.0 15.0 15.0 3.7 1.2 10.4 1.8 0.2 0.1 0.1 0.5 2.8 6.8 6.3 13.3 4.1
15.0 15.0 15.0 15.0 15.0 6.0 1.4 15.0 15.0 2.5 7.0 0.2 0.3 0.4 0.4 9.1 15.0 12.2 15.0 15.0 15.0 15.0 0.1 0.1 0.0 0.0 0.0 0.1 2.1 14.6 12.9 0.3 0.7 2.1 0.3 0.1 0.1 0.6 4.4 6.8 10.8 4.4 4.1 4.1
15.0 15.0 15.0 3.8 2.7 14.1 4.8 2.7 0.5 2.7 3.3 0.4 0.2 0.6 0.8 13.0 0.1 0.1 0.2 0.3 0.2 0.2 0.1 0.1 0.1 0.0 0.0 0.1 0.1 1.5 0.2 0.1 0.1 0.3 0.1 0.1 0.5 4.6 5.1 4.9 4.5 4.4 4.1 4.1
15.0 15.0 15.0 6.2 1.3 1.8 12.8 0.9 0.2 0.3 0.6 0.7 0.6 0.2 0.2 0.1 0.0 0.0 0.2 0.1 0.1 0.1 0.1 0.1 0.0 0.0 0.0 0.9 0.5 0.1 0.1 0.1 0.1 0.1 0.1 1.2 5.6 4.4 4.4 4.3 8.2 5.7 13.4 11.6
8.6 1.7 1.5 3.2 2.9 2.9 6.6 13.4 1.5 0.6 0.4 0.7 0.3 0.1 0.0 0.0 0.1 0.1 0.2 0.1 0.1 0.1 0.1 0.1 0.1 0.1 0.1 0.1 0.1 0.1 0.1 0.1 0.1 0.2 5.8 8.9 12.3 14.8 13.1 11.5 13.9 5.1 5.2 7.0
1.3 2.7 1.6 15.0 14.8 4.2 4.4 3.4 3.0 0.7 0.3 0.3 0.1 0.0 0.1 0.0 0.0 0.1 0.4 0.1 0.1 0.1 0.1 0.1 0.1 0.1 0.1 0.1 0.1 0.1 0.1 0.2 4.2 12.6 15.0 8.5 15.0 15.0 15.0 14.2 6.1 6.4 1.1 0.9
12.3 2.7 5.0 13.8 3.0 0.9 9.9 2.0 0.6 0.3 0.3 0.3 0.2 0.2 0.2 0.1 0.1 0.3 0.2 0.3 0.1 0.1 0.1 0.1 0.1 0.1 0.1 0.2 0.5 2.4 8.7 15.0 15.0 8.2 14.3 15.0 6.9 1.5 0.3 0.6 4.9 4.5 4.2 4.5
0.4 0.8 3.4 9.7 0.5 0.9 0.5 0.6 0.3 0.2 0.3 0.3 0.2 0.2 0.3 0.1 0.1 0.1 0.1 0.2 0.1 0.1 0.1 0.1 0.3 0.4 1.2 4.2 14.0 15.0 7.6 7.2 6.0 7.3 6.7 6.1 6.9 4.2 4.1 4.1 4.1 4.1 4.1 2.9
10.1 7.8 8.9 5.7 9.9 6.0 0.6 0.5 0.7 0.4 0.3 0.4 0.3 0.2 0.1 0.1 0.1 0.1 0.2 0.2 0.1 0.1 0.1 0.3 0.4 0.6 0.7 0.7 2.0 5.6 4.6 0.5 0.6 4.2 5.5 5.0 4.7 5.0 4.3 4.1 4.1 3.6 0.9 0.3